Location: Newark
(49.1000°N, 0.4667°W)
Time: 10:56:56
(UTC+00:00)

BEESAT 3 - Pass Details

Date: 04 July 2020
Orbit: 482 x 522 km, 64.9° (Epoch: 10 August)

Event Time Altitude Azimuth Distance (km) Brightness Sun altitude
Rises 22:30:20 0° 234° (SW) 2,635 ? -15.0°
Reaches altitude 10° 22:32:34 10° 240° (WSW) 1,755 ? -15.1°
Maximum altitude 22:36:22 47° 315° (NW) 701 ? -15.4°
Drops below altitude 10° 22:40:13 10° 30° (NNE) 1,769 ? -15.6°
Sets 22:42:28 0° 37° (NE) 2,660 ? -15.7°
